TimeEST,TemperatureF,Dew PointF,Humidity,Sea Level PressureIn,VisibilityMPH,Wind Direction,Wind SpeedMPH,Gust SpeedMPH,PrecipitationIn,Events,Conditions,WindDirDegrees,DateUTC
12:15 AM,28.4,26.6,93,29.88,10.0,Calm,Calm,-,N/A,,Overcast,0,2014-02-27 05:15:00
12:35 AM,30.2,26.6,86,29.88,10.0,Calm,Calm,-,N/A,,Unknown,0,2014-02-27 05:35:00
12:55 AM,30.2,26.6,86,29.88,10.0,Calm,Calm,-,N/A,,Unknown,0,2014-02-27 05:55:00
1:15 AM,32.0,26.6,80,29.88,10.0,Calm,Calm,-,N/A,,Unknown,0,2014-02-27 06:15:00
1:35 AM,32.0,26.6,80,29.87,10.0,Calm,Calm,-,N/A,,Unknown,0,2014-02-27 06:35:00
1:55 AM,32.0,26.6,80,29.86,10.0,ENE,3.5,-,N/A,,Unknown,70,2014-02-27 06:55:00
2:15 AM,32.0,26.6,80,29.86,10.0,Calm,Calm,-,N/A,,Unknown,0,2014-02-27 07:15:00
2:35 AM,32.0,26.6,80,29.86,10.0,Calm,Calm,-,N/A,,Unknown,0,2014-02-27 07:35:00
2:55 AM,32.0,24.8,75,29.85,10.0,Calm,Calm,-,N/A,,Unknown,0,2014-02-27 07:55:00
3:15 AM,32.0,24.8,75,29.84,10.0,Calm,Calm,-,N/A,,Unknown,0,2014-02-27 08:15:00
3:35 AM,32.0,24.8,75,29.83,10.0,Calm,Calm,-,N/A,,Unknown,0,2014-02-27 08:35:00
3:55 AM,32.0,24.8,75,29.82,10.0,Calm,Calm,-,N/A,,Unknown,0,2014-02-27 08:55:00
4:15 AM,32.0,24.8,75,29.82,10.0,Calm,Calm,-,N/A,,Unknown,0,2014-02-27 09:15:00
4:35 AM,32.0,24.8,75,29.82,10.0,Calm,Calm,-,N/A,,Overcast,0,2014-02-27 09:35:00
4:55 AM,32.0,24.8,75,29.81,10.0,Calm,Calm,-,N/A,,Unknown,0,2014-02-27 09:55:00
5:15 AM,30.2,24.8,80,29.81,10.0,Calm,Calm,-,N/A,,Unknown,0,2014-02-27 10:15:00
5:35 AM,30.2,24.8,80,29.81,10.0,Calm,Calm,-,N/A,,Unknown,0,2014-02-27 10:35:00
5:55 AM,30.2,24.8,80,29.80,10.0,SE,3.5,-,N/A,,Unknown,140,2014-02-27 10:55:00
6:15 AM,30.2,24.8,80,29.80,10.0,South,3.5,-,N/A,,Unknown,170,2014-02-27 11:15:00
6:35 AM,32.0,26.6,80,29.81,10.0,SSW,3.5,-,N/A,,Unknown,200,2014-02-27 11:35:00
6:55 AM,33.8,26.6,75,29.81,10.0,WSW,3.5,-,N/A,,Unknown,250,2014-02-27 11:55:00
7:15 AM,33.8,26.6,75,29.81,10.0,SW,3.5,-,N/A,,Unknown,220,2014-02-27 12:15:00
7:30 AM,33.8,26.6,75,29.81,10.0,WSW,4.6,-,N/A,,Unknown,240,2014-02-27 12:30:00
7:55 AM,33.8,26.6,75,29.82,10.0,West,8.1,-,N/A,,Unknown,270,2014-02-27 12:55:00
8:15 AM,33.8,26.6,75,29.82,10.0,SW,4.6,-,N/A,,Unknown,220,2014-02-27 13:15:00
8:35 AM,35.6,28.4,75,29.82,10.0,WSW,6.9,-,N/A,,Unknown,250,2014-02-27 13:35:00
8:55 AM,35.6,28.4,75,29.82,10.0,WSW,9.2,17.3,N/A,,Unknown,250,2014-02-27 13:55:00
9:15 AM,37.4,24.8,60,29.81,10.0,WSW,10.4,18.4,N/A,,Unknown,250,2014-02-27 14:15:00
9:35 AM,39.2,19.4,45,29.80,10.0,West,15.0,19.6,N/A,,Clear,280,2014-02-27 14:35:00
9:55 AM,39.2,17.6,42,29.80,10.0,WSW,12.7,20.7,N/A,,Clear,250,2014-02-27 14:55:00
10:15 AM,41.0,15.8,36,29.79,10.0,West,16.1,25.3,N/A,,Clear,260,2014-02-27 15:15:00
10:35 AM,42.8,15.8,34,29.78,10.0,West,9.2,21.9,N/A,,Clear,260,2014-02-27 15:35:00
10:55 AM,44.6,15.8,31,29.77,10.0,West,12.7,21.9,N/A,,Clear,260,2014-02-27 15:55:00
11:15 AM,44.6,14.0,29,29.76,10.0,West,20.7,27.6,N/A,,Clear,260,2014-02-27 16:15:00
11:35 AM,46.4,14.0,27,29.75,10.0,West,15.0,27.6,N/A,,Unknown,260,2014-02-27 16:35:00
11:55 AM,46.4,12.2,25,29.74,10.0,West,16.1,25.3,N/A,,Unknown,280,2014-02-27 16:55:00
12:10 PM,48.2,12.2,24,29.74,10.0,West,18.4,27.6,N/A,,Unknown,260,2014-02-27 17:10:00
12:35 PM,48.2,12.2,24,29.73,10.0,West,24.2,29.9,N/A,,Clear,270,2014-02-27 17:35:00
12:55 PM,48.2,12.2,24,29.72,10.0,West,17.3,34.5,N/A,,Clear,280,2014-02-27 17:55:00
1:15 PM,50.0,12.2,22,29.71,10.0,West,21.9,29.9,N/A,,Clear,260,2014-02-27 18:15:00
1:35 PM,51.8,12.2,21,29.70,10.0,WNW,16.1,25.3,N/A,,Clear,290,2014-02-27 18:35:00
1:55 PM,51.8,12.2,21,29.71,10.0,West,18.4,25.3,N/A,,Clear,280,2014-02-27 18:55:00
2:15 PM,51.8,12.2,21,29.70,10.0,West,19.6,27.6,N/A,,Clear,260,2014-02-27 19:15:00
2:35 PM,51.8,12.2,21,29.71,10.0,WNW,18.4,28.8,N/A,,Clear,290,2014-02-27 19:35:00
2:55 PM,51.8,10.4,19,29.71,10.0,West,15.0,32.2,N/A,,Clear,280,2014-02-27 19:55:00
3:15 PM,51.8,10.4,19,29.71,10.0,WNW,21.9,31.1,N/A,,Clear,290,2014-02-27 20:15:00
3:35 PM,51.8,12.2,21,29.72,10.0,WNW,13.8,21.9,N/A,,Clear,290,2014-02-27 20:35:00
3:55 PM,51.8,10.4,19,29.73,10.0,WNW,18.4,24.2,N/A,,Clear,290,2014-02-27 20:55:00
4:15 PM,51.8,10.4,19,29.74,10.0,WNW,16.1,23.0,N/A,,Clear,290,2014-02-27 21:15:00
4:35 PM,51.8,10.4,19,29.75,10.0,WNW,11.5,21.9,N/A,,Clear,290,2014-02-27 21:35:00
4:50 PM,51.8,12.2,21,29.75,10.0,WNW,12.7,19.6,N/A,,Clear,300,2014-02-27 21:50:00
5:15 PM,51.8,10.4,19,29.77,10.0,WNW,16.1,23.0,N/A,,Clear,300,2014-02-27 22:15:00
5:35 PM,50.0,10.4,20,29.78,10.0,WNW,11.5,18.4,N/A,,Clear,290,2014-02-27 22:35:00
5:55 PM,46.4,10.4,23,29.80,10.0,WNW,6.9,-,N/A,,Clear,300,2014-02-27 22:55:00
6:15 PM,46.4,10.4,23,29.82,10.0,WNW,8.1,-,N/A,,Clear,290,2014-02-27 23:15:00
6:35 PM,42.8,12.2,29,29.83,10.0,NNW,4.6,-,N/A,,Clear,340,2014-02-27 23:35:00
6:55 PM,42.8,15.8,34,29.85,10.0,NNW,3.5,-,N/A,,Clear,330,2014-02-27 23:55:00
7:15 PM,39.2,15.8,39,29.86,10.0,Calm,Calm,-,N/A,,Clear,0,2014-02-28 00:15:00
7:35 PM,37.4,23.0,56,29.87,10.0,Calm,Calm,-,N/A,,Clear,0,2014-02-28 00:35:00
7:55 PM,39.2,15.8,39,29.90,10.0,NNE,10.4,18.4,N/A,,Clear,30,2014-02-28 00:55:00
8:15 PM,37.4,15.8,41,29.91,10.0,NNE,9.2,-,N/A,,Clear,30,2014-02-28 01:15:00
8:35 PM,37.4,15.8,41,29.93,10.0,NNE,5.8,-,N/A,,Clear,30,2014-02-28 01:35:00
8:55 PM,37.4,15.8,41,29.95,10.0,NNE,10.4,-,N/A,,Clear,30,2014-02-28 01:55:00
9:15 PM,35.6,14.0,41,29.97,10.0,NNE,4.6,-,N/A,,Clear,30,2014-02-28 02:15:00
9:35 PM,35.6,15.8,44,29.99,10.0,NE,4.6,-,N/A,,Clear,40,2014-02-28 02:35:00
9:55 PM,35.6,12.2,38,30.01,10.0,NNE,5.8,-,N/A,,Clear,20,2014-02-28 02:55:00
10:15 PM,33.8,12.2,41,30.03,10.0,NNE,4.6,-,N/A,,Clear,30,2014-02-28 03:15:00
10:35 PM,33.8,12.2,41,30.04,10.0,NE,6.9,-,N/A,,Clear,40,2014-02-28 03:35:00
10:55 PM,33.8,12.2,41,30.06,10.0,ENE,3.5,-,N/A,,Clear,60,2014-02-28 03:55:00
11:15 PM,32.0,12.2,44,30.07,10.0,NNE,6.9,-,N/A,,Clear,30,2014-02-28 04:15:00
11:35 PM,32.0,12.2,44,30.07,10.0,NE,5.8,-,N/A,,Clear,40,2014-02-28 04:35:00
11:55 PM,30.2,14.0,51,30.09,10.0,NE,3.5,-,N/A,,Clear,40,2014-02-28 04:55:00